SORCE

Last updated on Thu Dec 18 2025 00:02:41 GMT+0000 (Coordinated Universal Time)

1 27651U 03004A 25351.62371205 .00003005 00000+0 23387-3 0 9993 2 27651 39.9896 216.5988 0016730 191.0065 169.0364 15.02322884244571
UTC large
Height (km)
Speed (km/s)
/
Latitude / Longitude
Inclination (degrees)
Orbital Period (minutes)
Azimuth
Elevation
Range (km)
Doppler Factor

Next 0 passes for location: London (51.5072 / 0.1276)

Sorry there are no passes over London.